Date String (YYYY-MM-DD hh:mm:ss) UTC,Instrument flags,Ambient pressure (hPa),Sample flow (lpm),Bypass flow (lpm),Sample temperature (°C),Ambient temperature (°C),ASC tube jacket temperature (°C),LED temperature (°C),Box temperature (°C),Sample RH (%),Span deviation,Mass concentration (μg/m³),Mass concentration (μg/m³),Mass concentration (μg/m³)
DateTimeUTC,F1_M11,P_M11,Q1_M11,Q2_M11,T1_M11,T2_M11,T3_M11,T4_M11,T5_M11,U1_M11,ZSPAN_M11,X0_M11,X2_M11,X1_M11
2022-10-13 16:00:00,,0831.9,4.98,0.00,27.0,25.9,00.0,35.7,29.0,17.2,0000.4,0012.00,0005.25,0004.41
2022-10-13 16:01:00,,0831.9,5.00,0.00,27.0,25.9,00.0,35.7,29.0,17.2,0001.3,0012.26,0005.29,0004.42
2022-10-13 16:02:00,,0832.0,5.01,0.00,27.1,25.9,00.0,35.7,29.0,17.3,0000.0,0011.71,0005.31,0004.43
2022-10-13 16:03:00,,0832.0,5.00,0.00,27.1,25.9,00.0,35.7,29.1,17.4,0000.0,0011.74,0005.35,0004.43
2022-10-13 16:04:00,,0832.0,5.00,0.00,27.1,25.9,00.0,35.8,29.1,17.6,0000.0,0012.06,0005.38,0004.43
2022-10-13 16:05:00,,0831.9,5.00,0.00,27.1,25.9,00.0,35.8,29.1,17.5,0000.0,0011.56,0005.35,0004.43
2022-10-13 16:06:00,,0831.9,4.98,0.00,27.1,26.0,00.0,35.8,29.1,17.6,0000.0,0011.61,0005.40,0004.43
2022-10-13 16:07:00,,0832.0,5.00,0.00,27.1,26.0,00.0,35.8,29.1,17.8,0000.0,0011.77,0005.42,0004.46
2022-10-13 16:08:00,,0832.0,5.00,0.00,27.1,26.0,00.0,35.8,29.2,17.7,0000.0,0012.02,0005.44,0004.48
2022-10-13 16:09:00,,0831.9,5.01,0.00,27.2,26.0,00.0,35.8,29.2,17.6,0000.0,0012.24,0005.44,0004.49
2022-10-13 16:10:00,,0831.9,5.00,0.00,27.2,26.0,00.0,35.8,29.2,17.9,0000.0,0012.35,0005.46,0004.49
2022-10-13 16:11:00,,0831.9,4.98,0.00,27.2,26.0,00.0,35.9,29.2,17.7,0000.0,0012.31,0005.46,0004.49
2022-10-13 16:12:00,,0831.8,5.00,0.00,27.2,26.0,00.0,35.9,29.2,17.6,0000.0,0012.38,0005.50,0004.49
2022-10-13 16:13:00,,0831.8,5.00,0.00,27.2,26.1,00.0,35.9,29.2,17.2,0000.0,0012.30,0005.49,0004.51
2022-10-13 16:14:00,,0831.9,5.00,0.00,27.2,26.1,00.0,35.9,29.3,17.5,0000.0,0012.14,0005.48,0004.51
2022-10-13 16:15:00,,0831.8,5.00,0.00,27.3,26.1,00.0,35.9,29.3,17.6,0000.0,0011.86,0005.45,0004.52
2022-10-13 16:16:00,,0831.8,4.99,0.00,27.3,26.1,00.0,36.0,29.3,17.3,0000.0,0011.92,0005.41,0004.53
2022-10-13 16:17:00,,0831.8,5.00,0.00,27.3,26.1,00.0,36.0,29.3,17.4,0000.0,0012.41,0005.42,0004.53
2022-10-13 16:18:00,,0831.8,5.00,0.00,27.3,26.1,00.0,36.0,29.3,17.4,0000.0,0012.34,0005.37,0004.52
2022-10-13 16:19:00,,0831.8,5.01,0.00,27.3,26.1,00.0,36.0,29.3,17.4,0000.0,0012.22,0005.37,0004.53
2022-10-13 16:20:00,,0831.8,5.01,0.00,27.3,26.1,00.0,36.0,29.3,18.0,0000.0,0012.49,0005.36,0004.54
2022-10-13 16:21:00,,0831.8,5.00,0.00,27.3,26.1,00.0,36.0,29.3,17.6,0000.0,0012.43,0005.36,0004.56
2022-10-13 16:22:00,,0831.9,5.00,0.00,27.3,26.1,00.0,36.0,29.3,17.7,0000.0,0012.62,0005.37,0004.59
2022-10-13 16:23:00,,0831.8,4.99,0.00,27.3,26.2,00.0,36.0,29.3,17.8,0000.0,0012.74,0005.40,0004.61
2022-10-13 16:24:00,,0831.9,5.00,0.00,27.4,26.2,00.0,36.1,29.3,17.9,0000.0,0013.20,0005.42,0004.63
2022-10-13 16:25:00,,0831.8,5.00,0.00,27.4,26.2,00.0,36.1,29.4,17.5,0000.0,0013.63,0005.44,0004.65
2022-10-13 16:26:00,,0831.8,5.00,0.00,27.4,26.2,00.0,36.1,29.4,17.7,0000.0,0013.48,0005.44,0004.67
2022-10-13 16:27:00,,0831.8,5.00,0.00,27.4,26.2,00.0,36.1,29.4,17.3,0000.0,0013.83,0005.57,0004.70
2022-10-13 16:28:00,,0831.8,5.00,0.00,27.4,26.3,00.0,36.1,29.4,17.3,0000.0,0013.11,0005.60,0004.72
2022-10-13 16:29:00,,0831.8,4.99,0.00,27.4,26.3,00.0,36.1,29.4,17.8,0000.0,0013.06,0005.63,0004.75
2022-10-13 16:30:00,,0831.8,5.00,0.00,27.5,26.3,00.0,36.1,29.4,17.4,0000.0,0013.39,0005.68,0004.76
2022-10-13 16:31:00,,0831.8,5.00,0.00,27.5,26.3,00.0,36.2,29.4,17.3,0000.0,0012.89,0005.72,0004.78
2022-10-13 16:32:00,,0831.8,5.01,0.00,27.5,26.3,00.0,36.2,29.4,17.8,0000.0,0013.39,0005.74,0004.79
2022-10-13 16:33:00,,0831.7,5.01,0.00,27.5,26.3,00.0,36.2,29.5,17.4,0000.0,0014.02,0005.74,0004.81
2022-10-13 16:34:00,,0831.7,4.98,0.00,27.5,26.3,00.0,36.2,29.5,17.4,0000.0,0014.63,0005.75,0004.81
2022-10-13 16:35:00,,0831.7,5.00,0.00,27.5,26.4,00.0,36.2,29.5,17.2,0000.0,0014.22,0005.77,0004.82
2022-10-13 16:36:00,,0831.7,5.01,0.00,27.5,26.4,00.0,36.2,29.5,16.5,0000.0,0013.59,0005.74,0004.83
2022-10-13 16:37:00,,0831.7,5.00,0.00,27.6,26.4,00.0,36.2,29.6,15.7,0000.0,0013.39,0005.72,0004.84
2022-10-13 16:38:00,,0831.8,5.00,0.00,27.6,26.4,00.0,36.3,29.6,16.1,0000.0,0012.98,0005.62,0004.85
2022-10-13 16:39:00,,0831.8,4.99,0.00,27.6,26.4,00.0,36.3,29.5,16.7,0000.0,0013.51,0005.59,0004.85
2022-10-13 16:40:00,,0831.8,4.99,0.00,27.6,26.4,00.0,36.3,29.6,16.3,0000.0,0013.53,0005.62,0004.85
2022-10-13 16:41:00,,0831.8,5.00,0.00,27.6,26.4,00.0,36.3,29.6,16.2,0000.0,0012.88,0005.62,0004.87
2022-10-13 16:42:00,,0831.9,5.01,0.00,27.6,26.4,00.0,36.3,29.6,16.1,0000.0,0013.10,0005.64,0004.89
2022-10-13 16:43:00,,0831.9,5.00,0.00,27.6,26.4,00.0,36.3,29.6,16.3,0000.0,0013.31,0005.63,0004.89
2022-10-13 16:44:00,,0831.8,5.00,0.00,27.6,26.4,00.0,36.3,29.6,15.8,0000.0,0012.94,0005.61,0004.90
2022-10-13 16:45:00,,0831.9,5.00,0.00,27.6,26.4,00.0,36.3,29.6,15.2,0000.0,0012.03,0005.57,0004.90
2022-10-13 16:46:00,,0832.0,4.99,0.00,27.7,26.5,00.0,36.4,29.7,15.9,0000.0,0011.79,0005.56,0004.91
2022-10-13 16:47:00,,0831.9,5.00,0.00,27.7,26.5,00.0,36.4,29.6,15.6,0000.0,0011.71,0005.58,0004.92
2022-10-13 16:48:00,,0831.9,5.00,0.00,27.7,26.5,00.0,36.4,29.7,15.4,0000.0,0011.72,0005.60,0004.94
2022-10-13 16:49:00,,0831.9,5.00,0.00,27.7,26.5,00.0,36.4,29.7,15.1,0000.0,0011.48,0005.59,0004.94
2022-10-13 16:50:00,,0831.9,5.00,0.00,27.7,26.4,00.0,36.4,29.7,14.8,0000.0,0010.72,0005.56,0004.93
2022-10-13 16:51:00,,0831.9,5.00,0.00,27.7,26.5,00.0,36.4,29.7,15.3,0000.0,0011.73,0005.49,0004.92
2022-10-13 16:52:00,,0831.9,5.00,0.00,27.7,26.5,00.0,36.4,29.7,15.7,0000.0,0012.47,0005.44,0004.89
2022-10-13 16:53:00,,0832.0,5.00,0.00,27.7,26.5,00.0,36.4,29.7,14.8,0000.0,0012.22,0005.39,0004.86
2022-10-13 16:54:00,,0831.9,5.00,0.00,27.7,26.5,00.0,36.5,29.7,14.7,0000.0,0011.92,0005.36,0004.85
2022-10-13 16:55:00,,0831.9,4.98,0.00,27.7,26.5,00.0,36.5,29.7,14.8,0000.0,0011.73,0005.35,0004.83
2022-10-13 16:56:00,,0831.9,5.00,0.00,27.8,26.5,00.0,36.5,29.7,14.2,0000.0,0012.12,0005.37,0004.82
2022-10-13 16:57:00,,0831.8,5.01,0.00,27.8,26.5,00.0,36.5,29.7,14.1,0000.0,0012.35,0005.34,0004.83
2022-10-13 16:58:00,,0831.8,5.01,0.00,27.8,26.5,00.0,36.5,29.7,14.6,0000.0,0012.36,0005.33,0004.82
2022-10-13 16:59:00,,0831.8,4.98,0.00,27.8,26.5,00.0,36.5,29.8,14.8,0000.0,0012.54,0005.34,0004.80
